HS5BOG-13 Weather Reports


time (UTC)temp
F
wind
direction
speed
knots
gust
knots
rain 1hr
in
rain 24hr
in
rain mn
in
humidity
%
barometer
mb
20260509053746 86 0.0 0.0 0.00 0.00 0.00 72 992.8
20260509052741 87 0.0 0.0 0.00 0.00 0.00 70 992.8
20260509051735 87 0.0 0.0 0.00 0.00 0.00 72 992.9
20260509050730 87 0.0 0.0 0.00 0.00 0.00 73 993.2
20260509045724 86 0.0 0.0 0.00 0.00 0.00 74 993.4
20260509044718 86 0.0 0.0 0.00 0.00 0.00 76 993.6
20260509043713 86 0.0 0.0 0.00 0.00 0.00 75 993.6
20260509042707 86 0.0 0.0 0.00 0.00 0.00 76 993.8
20260509041702 86 0.0 0.0 0.00 0.00 0.00 76 994.1
20260509040656 86 0.0 0.0 0.00 0.00 0.00 76 994.2
20260509035651 86 0.0 0.0 0.00 0.00 0.00 78 994.4
20260509034645 85 0.0 0.0 0.00 0.00 0.00 80 994.5
20260509033639 85 0.0 0.0 0.00 0.00 0.00 81 994.7
20260509032634 85 0.0 0.0 0.00 0.00 0.00 83 994.9
20260509031628 85 0.0 0.0 0.00 0.00 0.00 89 995.0
20260509030623 85 0.0 0.0 0.00 0.00 0.00 91 995.2
20260509025617 85 0.0 0.0 0.00 0.00 0.00 91 995.3
20260509024611 84 0.0 0.0 0.00 0.00 0.00 91 995.4
20260509023606 84 0.0 0.0 0.00 0.00 0.00 91 995.5
20260509022600 84 0.0 0.0 0.00 0.00 0.00 90 995.5
20260509021555 84 0.0 0.0 0.00 0.00 0.00 92 995.4
20260509020549 84 0.0 0.0 0.00 0.00 0.00 93 995.4
20260509015543 83 0.0 0.0 0.00 0.00 0.00 94 995.4
20260509014538 83 0.0 0.0 0.00 0.00 0.00 95 995.3
20260509013532 83 0.0 0.0 0.00 0.00 0.00 95 995.4
20260509012527 83 0.0 0.0 0.00 0.00 0.00 95 995.3
20260509011521 83 0.0 0.0 0.00 0.00 0.00 94 995.2
20260509010515 83 0.0 0.0 0.00 0.00 0.00 95 995.3
20260509005510 83 0.0 0.0 0.00 0.00 0.00 97 995.2
20260509004504 83 0.0 0.0 0.00 0.00 0.00 97 995.1
20260509003459 82 0.0 0.0 0.00 0.00 0.00 97 995.1
20260509002453 83 0.0 0.0 0.00 0.00 0.00 98 995.0
20260509001448 83 0.0 0.0 0.00 0.00 0.00 98 994.9
20260509000442 83 0.0 0.0 0.00 0.00 0.00 99 994.6
20260508235437 83 0.0 0.0 0.00 0.00 0.00 99 994.6
20260508234431 83 0.0 0.0 0.00 0.00 0.00 98 994.5
20260508233425 83 0.0 0.0 0.00 0.00 0.00 98 994.5
20260508232420 83 0.0 0.0 0.00 0.00 0.00 97 994.3
20260508231414 83 0.0 0.0 0.00 0.00 0.00 97 994.1
20260508230408 83 0.0 0.0 0.00 0.00 0.00 97 993.9
20260508225403 83 0.0 0.0 0.00 0.00 0.00 97 993.8
20260508224357 83 0.0 0.0 0.00 0.00 0.00 96 993.7
20260508223352 83 0.0 0.0 0.00 0.00 0.00 96 993.7
20260508222346 83 0.0 0.0 0.00 0.00 0.00 96 993.6
20260508221341 83 0.0 0.0 0.00 0.00 0.00 95 993.5
20260508220335 83 0.0 0.0 0.00 0.00 0.00 95 993.4
20260508215329 83 0.0 0.0 0.00 0.00 0.00 95 993.4
20260508214324 83 0.0 0.0 0.00 0.00 0.00 95 993.2
20260508213318 83 0.0 0.0 0.00 0.00 0.00 94 993.1
20260508212313 83 0.0 0.0 0.00 0.00 0.00 93 993.0
20260508211307 83 0.0 0.0 0.00 0.00 0.00 93 992.9
20260508210302 83 0.0 0.0 0.00 0.00 0.00 92 992.8
20260508205256 83 0.0 0.0 0.00 0.00 0.00 92 992.6
20260508204250 83 0.0 0.0 0.00 0.00 0.00 92 992.6
20260508203245 83 0.0 0.0 0.00 0.00 0.00 91 992.6
20260508202239 83 0.0 0.0 0.00 0.00 0.00 91 992.6
20260508201234 83 0.0 0.0 0.00 0.00 0.00 90 992.6
20260508200228 83 0.0 0.0 0.00 0.00 0.00 90 992.6
20260508195223 83 0.0 0.0 0.00 0.00 0.00 90 992.7
20260508194217 83 0.0 0.0 0.00 0.00 0.00 89 992.7
20260508193212 83 0.0 0.0 0.00 0.00 0.00 87 992.8
20260508192206 83 0.0 0.0 0.00 0.00 0.00 85 992.8
20260508191200 84 0.0 0.0 0.00 0.00 0.00 82 992.9
20260508190155 83 0.0 0.0 0.00 0.00 0.00 83 992.9
20260508185149 84 0.0 0.0 0.00 0.00 0.00 82 993.0
20260508184143 84 0.0 0.0 0.00 0.00 0.00 81 993.1
20260508183138 84 0.0 0.0 0.00 0.00 0.00 82 993.1
20260508182132 84 0.0 0.0 0.00 0.00 0.00 81 993.1
20260508181127 84 0.0 0.0 0.00 0.00 0.00 82 993.2
20260508180121 84 0.0 0.0 0.00 0.00 0.00 81 993.2
20260508175116 84 0.0 0.0 0.00 0.00 0.00 80 993.4
20260508174110 84 0.0 0.0 0.00 0.00 0.00 81 993.6
20260508173104 84 0.0 0.0 0.00 0.00 0.00 78 993.8
20260508172059 84 0.0 0.0 0.00 0.00 0.00 79 993.9
20260508171053 84 0.0 0.0 0.00 0.00 0.00 80 994.0
20260508170047 84 0.0 0.0 0.00 0.00 0.00 80 994.0
20260508165042 84 0.0 0.0 0.00 0.00 0.00 81 994.1
20260508164036 84 0.0 0.0 0.00 0.00 0.00 80 994.3
20260508163031 84 0.0 0.0 0.00 0.00 0.00 79 994.4
20260508162025 84 0.0 0.0 0.00 0.00 0.00 78 994.5
20260508161020 84 0.0 0.0 0.00 0.00 0.00 77 994.5
20260508160014 84 0.0 0.0 0.00 0.00 0.00 76 994.4
20260508155008 84 0.0 0.0 0.00 0.00 0.00 76 994.4
20260508154003 84 0.0 0.0 0.00 0.00 0.00 77 994.2
20260508152957 85 0.0 0.0 0.00 0.00 0.00 77 994.1
20260508151951 85 0.0 0.0 0.00 0.00 0.00 76 994.1
20260508150946 85 0.0 0.0 0.00 0.00 0.00 75 993.8
20260508145925 85 0.0 0.0 0.00 0.00 0.00 75 993.7
20260508144920 85 0.0 0.0 0.00 0.00 0.00 73 993.4
20260508143914 85 0.0 0.0 0.00 0.00 0.00 73 993.2
20260508142908 85 0.0 0.0 0.00 0.00 0.00 72 993.3
20260508141903 85 0.0 0.0 0.00 0.00 0.00 70 993.1
20260508140912 85 0.0 0.0 0.00 0.00 0.00 69 993.0
20260508135849 85 0.0 0.0 0.00 0.00 0.00 68 992.7
20260508134843 85 0.0 0.0 0.00 0.00 0.00 68 992.4
20260508133838 85 0.0 0.0 0.00 0.00 0.00 69 992.1
20260508132832 85 0.0 0.0 0.00 0.00 0.00 69 992.1
20260508131826 86 0.0 0.0 0.00 0.00 0.00 68 992.0
20260508130821 85 0.0 0.0 0.00 0.00 0.00 67 991.7
20260508125815 86 0.0 0.0 0.00 0.00 0.00 65 991.5
20260508124810 86 0.0 0.0 0.00 0.00 0.00 67 991.1
20260508123804 86 0.0 0.0 0.00 0.00 0.00 66 991.1
20260508122759 86 0.0 0.0 0.00 0.00 0.00 65 990.9
20260508121753 87 0.0 0.0 0.00 0.00 0.00 64 991.0
20260508120747 87 0.0 0.0 0.00 0.00 0.00 63 990.8
20260508115742 87 0.0 0.0 0.00 0.00 0.00 63 990.8
20260508114736 87 0.0 0.0 0.00 0.00 0.00 63 990.9
20260508113731 86 0.0 0.0 0.00 0.00 0.00 61 990.8
20260508112725 87 0.0 0.0 0.00 0.00 0.00 61 990.7
20260508111719 87 0.0 0.0 0.00 0.00 0.00 58 990.6
20260508110714 88 0.0 0.0 0.00 0.00 0.00 59 990.6
20260508105708 88 0.0 0.0 0.00 0.00 0.00 59 990.4
20260508104703 88 0.0 0.0 0.00 0.00 0.00 57 990.3
20260508103657 88 0.0 0.0 0.00 0.00 0.00 56 990.2
20260508102652 88 0.0 0.0 0.00 0.00 0.00 55 990.1
20260508101646 88 0.0 0.0 0.00 0.00 0.00 55 989.8
20260508100640 88 0.0 0.0 0.00 0.00 0.00 54 989.6
20260508095635 89 0.0 0.0 0.00 0.00 0.00 53 989.4
20260508094629 89 0.0 0.0 0.00 0.00 0.00 64 989.5
20260508093624 89 0.0 0.0 0.00 0.00 0.00 65 989.6
20260508092618 89 0.0 0.0 0.00 0.00 0.00 66 988.7
20260508091613 89 0.0 0.0 0.00 0.00 0.00 66 988.5
20260508090607 89 0.0 0.0 0.00 0.00 0.00 65 988.6
20260508085601 89 0.0 0.0 0.00 0.00 0.00 66 988.5
20260508084556 89 0.0 0.0 0.00 0.00 0.00 66 988.5
20260508083550 89 0.0 0.0 0.00 0.00 0.00 66 988.4
20260508082545 90 0.0 0.0 0.00 0.00 0.00 67 988.6
20260508081539 90 0.0 0.0 0.00 0.00 0.00 67 988.7
20260508080533 90 0.0 0.0 0.00 0.00 0.00 67 988.9
20260508075528 89 0.0 0.0 0.00 0.00 0.00 66 989.0
20260508074522 89 0.0 0.0 0.00 0.00 0.00 64 989.2
20260508073516 89 0.0 0.0 0.00 0.00 0.00 63 989.3
20260508072511 89 0.0 0.0 0.00 0.00 0.00 63 989.4
20260508071505 89 0.0 0.0 0.00 0.00 0.00 64 989.6
20260508070500 89 0.0 0.0 0.00 0.00 0.00 63 989.8
20260508065454 89 0.0 0.0 0.00 0.00 0.00 63 990.1
20260508064449 89 0.0 0.0 0.00 0.00 0.00 63 990.3
20260508063443 89 0.0 0.0 0.00 0.00 0.00 61 990.5
20260508062437 89 0.0 0.0 0.00 0.00 0.00 64 990.7
20260508061432 89 0.0 0.0 0.00 0.00 0.00 63 990.9
20260508060426 89 0.0 0.0 0.00 0.00 0.00 63 990.9
20260508055420 89 0.0 0.0 0.00 0.00 0.00 63 991.1
20260508054415 89 0.0 0.0 0.00 0.00 0.00 63 991.4